Time,TemperatureF,DewpointF,PressureIn,WindDirection,WindDirectionDegrees,WindSpeedMPH,WindSpeedGustMPH,Humidity,HourlyPrecipIn,Conditions,Clouds,dailyrainin,SoftwareType,DateUTC
2013-08-13 00:04:00,65.2,64.0,29.84,NW,304,3.0,4.0,97,0.00,,,0.00,weatherlink.com 1.10,2013-08-13 04:04:00,
2013-08-13 00:19:00,65.5,65.0,29.84,NW,309,4.0,5.0,98,0.00,,,0.00,weatherlink.com 1.10,2013-08-13 04:19:00,
2013-08-13 00:34:00,65.4,65.0,29.84,NW,308,2.0,4.0,98,0.00,,,0.00,weatherlink.com 1.10,2013-08-13 04:34:00,
2013-08-13 00:49:00,64.8,64.0,29.84,NW,308,2.0,3.0,98,0.00,,,0.00,weatherlink.com 1.10,2013-08-13 04:49:00,
2013-08-13 01:04:00,64.8,64.0,29.84,NW,308,0.0,1.0,98,0.00,,,0.00,weatherlink.com 1.10,2013-08-13 05:04:00,
2013-08-13 01:19:00,64.9,64.0,29.84,NW,308,1.0,3.0,98,0.00,,,0.00,weatherlink.com 1.10,2013-08-13 05:19:00,
2013-08-13 01:34:00,65.3,65.0,29.84,NW,308,0.0,3.0,98,0.00,,,0.00,weatherlink.com 1.10,2013-08-13 05:34:00,
2013-08-13 01:49:00,65.8,65.0,29.84,WNW,296,5.0,7.0,98,0.01,,,0.01,weatherlink.com 1.10,2013-08-13 05:49:00,
2013-08-13 02:04:00,66.0,66.0,29.84,NW,307,7.0,8.0,99,0.01,,,0.01,weatherlink.com 1.10,2013-08-13 06:04:00,
2013-08-13 02:19:00,65.9,65.0,29.84,NNW,336,9.0,12.0,98,0.01,,,0.01,weatherlink.com 1.10,2013-08-13 06:19:00,
2013-08-13 02:34:00,65.1,65.0,29.84,WNW,300,5.0,10.0,98,0.01,,,0.01,weatherlink.com 1.10,2013-08-13 06:34:00,
2013-08-13 02:49:00,64.6,64.0,29.84,NNW,329,3.0,8.0,98,0.00,,,0.01,weatherlink.com 1.10,2013-08-13 06:49:00,
2013-08-13 03:04:00,64.1,63.0,29.83,NW,312,2.0,7.0,97,0.00,,,0.01,weatherlink.com 1.10,2013-08-13 07:04:00,
2013-08-13 03:19:00,64.0,64.0,29.84,WNW,302,5.0,9.0,98,0.00,,,0.01,weatherlink.com 1.10,2013-08-13 07:19:00,
2013-08-13 03:34:00,63.8,63.0,29.84,NNW,339,3.0,6.0,98,0.00,,,0.01,weatherlink.com 1.10,2013-08-13 07:34:00,
2013-08-13 03:49:00,63.6,63.0,29.84,NW,314,0.0,5.0,98,0.00,,,0.01,weatherlink.com 1.10,2013-08-13 07:49:00,
2013-08-13 04:04:00,63.4,63.0,29.84,NW,311,1.0,5.0,98,0.00,,,0.01,weatherlink.com 1.10,2013-08-13 08:04:00,
2013-08-13 04:19:00,62.9,62.0,29.84,NW,311,1.0,4.0,98,0.00,,,0.01,weatherlink.com 1.10,2013-08-13 08:19:00,
2013-08-13 04:34:00,62.5,62.0,29.84,NW,311,1.0,3.0,98,0.00,,,0.01,weatherlink.com 1.10,2013-08-13 08:34:00,
2013-08-13 04:49:00,62.0,62.0,29.84,NW,309,2.0,4.0,98,0.00,,,0.01,weatherlink.com 1.10,2013-08-13 08:49:00,
2013-08-13 05:04:00,62.2,62.0,29.85,NW,308,2.0,7.0,98,0.00,,,0.01,weatherlink.com 1.10,2013-08-13 09:04:00,
2013-08-13 05:19:00,62.1,62.0,29.85,WNW,303,5.0,7.0,98,0.00,,,0.01,weatherlink.com 1.10,2013-08-13 09:19:00,
2013-08-13 05:35:00,61.7,61.0,29.85,WNW,302,3.0,6.0,98,0.00,,,0.01,weatherlink.com 1.10,2013-08-13 09:35:00,
2013-08-13 05:50:00,61.3,61.0,29.86,NW,319,4.0,9.0,98,0.00,,,0.01,weatherlink.com 1.10,2013-08-13 09:50:00,
2013-08-13 06:05:00,60.9,60.0,29.86,NW,321,4.0,7.0,98,0.00,,,0.01,weatherlink.com 1.10,2013-08-13 10:05:00,
2013-08-13 06:20:00,60.6,60.0,29.87,NW,312,3.0,6.0,97,0.00,,,0.01,weatherlink.com 1.10,2013-08-13 10:20:00,
2013-08-13 06:35:00,60.3,60.0,29.88,NNW,338,6.0,8.0,98,0.00,,,0.01,weatherlink.com 1.10,2013-08-13 10:35:00,
2013-08-13 06:50:00,60.1,60.0,29.88,NW,315,5.0,9.0,98,0.00,,,0.01,weatherlink.com 1.10,2013-08-13 10:50:00,
2013-08-13 07:05:00,59.9,59.0,29.89,NW,319,6.0,9.0,97,0.00,,,0.01,weatherlink.com 1.10,2013-08-13 11:05:00,
2013-08-13 07:20:00,59.7,59.0,29.89,NW,318,4.0,7.0,98,0.00,,,0.01,weatherlink.com 1.10,2013-08-13 11:20:00,
2013-08-13 07:35:00,60.0,60.0,29.90,NW,312,7.0,11.0,98,0.00,,,0.01,weatherlink.com 1.10,2013-08-13 11:35:00,
2013-08-13 07:50:00,60.1,59.0,29.90,NW,321,7.0,12.0,97,0.00,,,0.01,weatherlink.com 1.10,2013-08-13 11:50:00,
2013-08-13 08:05:00,59.9,59.0,29.91,WNW,296,5.0,12.0,97,0.00,,,0.01,weatherlink.com 1.10,2013-08-13 12:05:00,
2013-08-13 08:20:00,59.9,59.0,29.92,NW,317,10.0,11.0,96,0.00,,,0.01,weatherlink.com 1.10,2013-08-13 12:20:00,
2013-08-13 08:35:00,59.9,59.0,29.94,NW,318,7.0,11.0,96,0.00,,,0.01,weatherlink.com 1.10,2013-08-13 12:35:00,
2013-08-13 08:50:00,60.5,59.0,29.93,WNW,285,6.0,11.0,94,0.00,,,0.01,weatherlink.com 1.10,2013-08-13 12:50:00,
2013-08-13 09:05:00,60.3,58.0,29.93,NW,307,9.0,15.0,93,0.00,,,0.01,weatherlink.com 1.10,2013-08-13 13:05:00,
2013-08-13 09:20:00,60.9,58.0,29.93,NW,318,5.0,14.0,91,0.00,,,0.01,weatherlink.com 1.10,2013-08-13 13:20:00,
2013-08-13 09:35:00,60.3,58.0,29.93,NW,320,10.0,12.0,92,0.00,,,0.01,weatherlink.com 1.10,2013-08-13 13:35:00,
2013-08-13 09:50:00,61.9,58.0,29.94,WNW,298,9.0,14.0,88,0.00,,,0.01,weatherlink.com 1.10,2013-08-13 13:50:00,
2013-08-13 10:05:00,61.8,56.0,29.95,NW,322,10.0,13.0,81,0.00,,,0.01,weatherlink.com 1.10,2013-08-13 14:05:00,
2013-08-13 10:20:00,61.7,55.0,29.96,NW,313,12.0,14.0,79,0.00,,,0.01,weatherlink.com 1.10,2013-08-13 14:20:00,
2013-08-13 10:35:00,61.7,56.0,29.97,NW,308,7.0,14.0,82,0.00,,,0.01,weatherlink.com 1.10,2013-08-13 14:35:00,
2013-08-13 10:50:00,62.0,55.0,29.97,NW,310,2.0,10.0,79,0.00,,,0.01,weatherlink.com 1.10,2013-08-13 14:50:00,
2013-08-13 11:05:00,62.8,57.0,29.97,NW,309,5.0,12.0,81,0.00,,,0.01,weatherlink.com 1.10,2013-08-13 15:05:00,
2013-08-13 11:20:00,63.1,56.0,29.97,WNW,295,7.0,14.0,78,0.00,,,0.01,weatherlink.com 1.10,2013-08-13 15:20:00,
2013-08-13 11:35:00,63.9,57.0,29.97,NW,315,8.0,10.0,77,0.00,,,0.01,weatherlink.com 1.10,2013-08-13 15:35:00,
2013-08-13 11:50:00,64.0,56.0,29.98,NW,323,11.0,13.0,74,0.00,,,0.01,weatherlink.com 1.10,2013-08-13 15:50:00,
2013-08-13 12:05:00,64.6,56.0,29.97,NW,315,9.0,15.0,74,0.01,,,0.02,weatherlink.com 1.10,2013-08-13 16:05:00,
2013-08-13 12:20:00,64.7,55.0,29.98,WNW,292,10.0,15.0,71,0.03,,,0.04,weatherlink.com 1.10,2013-08-13 16:20:00,
2013-08-13 12:36:00,64.9,54.0,29.98,WNW,295,11.0,13.0,68,0.03,,,0.04,weatherlink.com 1.10,2013-08-13 16:36:00,
2013-08-13 12:51:00,65.4,55.0,29.98,NW,319,5.0,12.0,68,0.03,,,0.04,weatherlink.com 1.10,2013-08-13 16:51:00,
2013-08-13 13:06:00,66.0,55.0,29.98,NW,304,10.0,12.0,68,0.02,,,0.04,weatherlink.com 1.10,2013-08-13 17:06:00,
2013-08-13 13:21:00,65.9,55.0,29.98,WNW,289,10.0,17.0,68,0.00,,,0.04,weatherlink.com 1.10,2013-08-13 17:21:00,
2013-08-13 13:36:00,66.2,55.0,29.98,WNW,300,10.0,15.0,67,0.00,,,0.04,weatherlink.com 1.10,2013-08-13 17:36:00,
2013-08-13 13:51:00,66.4,55.0,29.99,NNW,329,8.0,16.0,68,0.00,,,0.04,weatherlink.com 1.10,2013-08-13 17:51:00,
2013-08-13 14:06:00,67.1,53.0,29.99,West,270,9.0,15.0,62,0.00,,,0.04,weatherlink.com 1.10,2013-08-13 18:06:00,
2013-08-13 14:21:00,67.3,53.0,29.99,NW,304,8.0,15.0,61,0.00,,,0.04,weatherlink.com 1.10,2013-08-13 18:21:00,
2013-08-13 14:36:00,67.2,52.0,29.99,NW,306,7.0,14.0,59,0.00,,,0.04,weatherlink.com 1.10,2013-08-13 18:36:00,
2013-08-13 14:51:00,66.9,52.0,30.00,NW,322,7.0,21.0,60,0.00,,,0.04,weatherlink.com 1.10,2013-08-13 18:51:00,
2013-08-13 15:06:00,67.3,53.0,30.00,NW,309,7.0,13.0,60,0.00,,,0.04,weatherlink.com 1.10,2013-08-13 19:06:00,
2013-08-13 15:21:00,68.3,54.0,30.00,WNW,302,8.0,14.0,61,0.00,,,0.04,weatherlink.com 1.10,2013-08-13 19:21:00,
2013-08-13 15:36:00,68.4,53.0,30.00,WNW,286,7.0,15.0,58,0.00,,,0.04,weatherlink.com 1.10,2013-08-13 19:36:00,
2013-08-13 15:51:00,68.5,53.0,30.00,WNW,292,7.0,13.0,59,0.00,,,0.04,weatherlink.com 1.10,2013-08-13 19:51:00,
2013-08-13 16:06:00,67.7,53.0,30.00,WNW,299,8.0,13.0,59,0.00,,,0.04,weatherlink.com 1.10,2013-08-13 20:06:00,
2013-08-13 16:21:00,67.4,54.0,30.00,NNW,333,3.0,14.0,63,0.00,,,0.04,weatherlink.com 1.10,2013-08-13 20:21:00,
2013-08-13 16:36:00,66.3,53.0,30.00,WNW,296,9.0,12.0,62,0.00,,,0.04,weatherlink.com 1.10,2013-08-13 20:36:00,
2013-08-13 16:51:00,67.5,53.0,30.00,WNW,285,4.0,13.0,61,0.00,,,0.04,weatherlink.com 1.10,2013-08-13 20:51:00,
2013-08-13 17:06:00,66.3,52.0,30.00,NW,315,10.0,15.0,60,0.00,,,0.04,weatherlink.com 1.10,2013-08-13 21:06:00,
2013-08-13 17:36:00,65.2,53.0,30.00,NW,326,6.0,13.0,64,0.00,,,0.04,weatherlink.com 1.10,2013-08-13 21:36:00,
2013-08-13 17:51:00,66.5,52.0,30.00,NW,315,11.0,14.0,61,0.00,,,0.04,weatherlink.com 1.10,2013-08-13 21:51:00,
2013-08-13 18:06:00,67.0,52.0,30.00,NW,321,7.0,15.0,59,0.00,,,0.04,weatherlink.com 1.10,2013-08-13 22:06:00,
2013-08-13 18:21:00,65.9,52.0,30.01,NNW,331,7.0,13.0,62,0.00,,,0.04,weatherlink.com 1.10,2013-08-13 22:21:00,
2013-08-13 18:36:00,65.7,52.0,30.01,WNW,297,5.0,14.0,61,0.00,,,0.04,weatherlink.com 1.10,2013-08-13 22:36:00,
2013-08-13 18:51:00,65.1,52.0,30.00,NW,314,6.0,9.0,62,0.00,,,0.04,weatherlink.com 1.10,2013-08-13 22:51:00,
2013-08-13 19:06:00,64.8,52.0,30.00,WNW,292,8.0,11.0,64,0.00,,,0.04,weatherlink.com 1.10,2013-08-13 23:06:00,
2013-08-13 19:21:00,64.0,52.0,30.00,NW,307,6.0,12.0,65,0.00,,,0.04,weatherlink.com 1.10,2013-08-13 23:21:00,
2013-08-13 19:36:00,64.2,54.0,30.00,WNW,301,9.0,10.0,69,0.00,,,0.04,weatherlink.com 1.10,2013-08-13 23:36:00,
2013-08-13 19:51:00,63.8,53.0,30.01,NW,318,3.0,9.0,69,0.00,,,0.04,weatherlink.com 1.10,2013-08-13 23:51:00,
2013-08-13 20:06:00,63.2,53.0,30.01,NW,307,4.0,13.0,69,0.00,,,0.04,weatherlink.com 1.10,2013-08-14 00:06:00,
2013-08-13 20:21:00,61.8,53.0,30.01,NNW,327,6.0,10.0,72,0.00,,,0.04,weatherlink.com 1.10,2013-08-14 00:21:00,
2013-08-13 20:36:00,60.7,52.0,30.02,WNW,302,4.0,8.0,74,0.00,,,0.04,weatherlink.com 1.10,2013-08-14 00:36:00,
2013-08-13 20:51:00,59.3,52.0,30.02,NW,312,2.0,5.0,78,0.00,,,0.04,weatherlink.com 1.10,2013-08-14 00:51:00,
2013-08-13 21:06:00,58.3,53.0,30.02,WNW,292,2.0,7.0,81,0.00,,,0.04,weatherlink.com 1.10,2013-08-14 01:06:00,
2013-08-13 21:21:00,57.5,52.0,30.03,WNW,291,2.0,6.0,83,0.00,,,0.04,weatherlink.com 1.10,2013-08-14 01:21:00,
2013-08-13 21:36:00,56.8,52.0,30.04,WNW,291,0.0,4.0,85,0.00,,,0.04,weatherlink.com 1.10,2013-08-14 01:36:00,
2013-08-13 21:51:00,55.8,52.0,30.04,WNW,291,3.0,3.0,86,0.00,,,0.04,weatherlink.com 1.10,2013-08-14 01:51:00,
2013-08-13 22:06:00,55.5,51.0,30.04,WNW,291,0.0,4.0,86,0.00,,,0.04,weatherlink.com 1.10,2013-08-14 02:06:00,
2013-08-13 22:21:00,55.0,51.0,30.05,WNW,291,2.0,3.0,87,0.00,,,0.04,weatherlink.com 1.10,2013-08-14 02:21:00,
2013-08-13 22:36:00,54.5,51.0,30.05,WNW,291,0.0,2.0,88,0.00,,,0.04,weatherlink.com 1.10,2013-08-14 02:36:00,
2013-08-13 22:51:00,54.2,51.0,30.05,WNW,291,3.0,4.0,88,0.00,,,0.04,weatherlink.com 1.10,2013-08-14 02:51:00,
2013-08-13 23:07:00,53.9,51.0,30.06,WNW,291,2.0,3.0,89,0.00,,,0.04,weatherlink.com 1.10,2013-08-14 03:07:00,
2013-08-13 23:22:00,53.3,51.0,30.06,WNW,291,0.0,3.0,90,0.00,,,0.04,weatherlink.com 1.10,2013-08-14 03:22:00,
2013-08-13 23:37:00,53.2,50.0,30.07,WNW,294,3.0,4.0,90,0.00,,,0.04,weatherlink.com 1.10,2013-08-14 03:37:00,
2013-08-13 23:52:00,53.1,50.0,30.07,WNW,294,2.0,5.0,90,0.00,,,0.04,weatherlink.com 1.10,2013-08-14 03:52:00,